Location: Devargunta
(16.7631°N, 80.9077°E)
Time: 10:57:43
(UTC+00:00)

Cosmos 2278 Rocket - Pass Details

Date: 19 January 2021
Orbit: 840 x 847 km, 71.0° (Epoch: 28 February)

Event Time Altitude Azimuth Distance (km) Brightness Sun altitude
Rises 13:18:21 0° 172° (S) 3,382 5.5 -12.8°
Reaches altitude 10° 13:21:06 10° 160° (SSE) 2,450 4.6 -13.4°
Maximum altitude 13:25:49 28° 103° (ESE) 1,535 3.1 -14.5°
Enters shadow 13:27:55 22° 69° (ENE) 1,758 3.2 -15.0°
